Cloud_Cover
0 4 7 54 21 52 8 5 5 10 5 5 5 2 4 6 5 18 2 1 4 3 5 3 0 0 0 0 4 1 0 0 0 0 0 0 0 0 0 0 0 0 0 0 0 0 0 0 0
3 5 5 6 5 23 5 4 5 3 3 0 0 0 0 0 0 1 3 4 5 4 6 4 0 0 0 0 0 0 2 0 0 0 0 0 0 0 0 0 0 0 0 0 0 0 0 0 0
0 3 5 5 5 2 0 0 0 2 0 0 0 0 0 0 0 0 0 0 0 0 0 45 3 1 0 0 0 5 4 5 0 0 0 0 0 0 0 0 0 0 0 0 0 0 0 0 0
0 4 5 6 4 2 2 4 0 0 0 0 3 2 4 0 0 0 0 0 0 0 0 9 9 5 5 36 6 3 5 0 0 0 1 3 5 20 0 0 0 0 0 0 0 0 0 0 0
0 3 5 5 5 3 0 5 5 4 0 3 5 5 5 0 0 0 0 0 0 0 0 0 3 0 2 4 3 0 0 0 2 5 1 8 100 5 2 0 3 0 5 3 5 0 0 0 0
0 0 5 5 5 5 5 5 2 0 0 4 18 7 5 5 0 0 0 0 0 0 5 18 7 0 0 0 0 0 0 0 0 0 2 22 2 0 0 5 1 4 1 4 0 0 0 0 1
0 3 3 5 5 5 5 5 5 0 3 59 7 59 49 10 0 0 0 0 0 0 0 1 2 1 3 0 5 0 0 1 0 0 0 0 0 0 0 0 0 4 1 1 0 0 0 0 0
0 3 5 5 5 0 4 9 0 0 7 44 60 66 9 9 0 0 0 0 0 0 0 13 98 0 0 0 0 0 0 0 0 0 0 0 0 2 0 0 3 0 0 0 0 0 0 0 0
0 0 0 4 5 0 1 1 2 0 3 30 18 51 16 4 0 0 2 41 0 0 0 0 1 8 2 0 0 0 0 0 0 0 0 0 0 0 0 0 0 0 0 5 4 5 18 0 0
0 0 0 0 0 0 0 2 0 0 1 17 5 19 4 0 4 6 59 54 3 22 42 14 50 0 0 9 5 1 0 0 0 0 0 0 0 0 0 0 2 13 3 0 0 2 2 0 4
0 0 0 0 0 0 5 4 0 0 0 0 0 0 2 0 65 65 43 100 72 59 90 75 6 3 4 21 77 87 71 93 98 92 71 43 41 36 10 0 0 0 4 85 98 48 5 5 23
0 0 0 0 0 0 0 0 0 0 0 0 0 1 8 96 80 10 5 100 100 100 98 100 67 11 97 33 100 100 20 62 92 86 90 64 99 99 100 52 18 10 0 3 6 5 0 0 4
0 0 0 1 0 0 0 0 0 0 0 0 1 78 100 33 94 35 36 100 100 100 100 82 87 81 100 24 29 100 89 100 100 94 68 72 100 84 83 97 89 92 100 100 96 87 99 18 0
0 2 0 0 0 0 0 0 0 15 33 5 0 11 98 41 48 100 100 71 87 75 100 100 100 100 86 19 41 100 100 100 100 100 100 100 100 100 100 100 100 100 100 100 100 100 100 100 77
0 0 0 4 0 0 0 0 0 4 30 9 15 78 47 51 70 52 98 63 100 100 100 95 100 100 82 100 100 100 100 100 100 100 100 100 100 100 100 100 100 100 100 100 94 57 98 100 100
1 5 5 2 0 0 0 0 0 1 0 9 37 88 100 100 89 31 99 97 80 100 100 89 100 100 100 91 71 100 100 100 100 100 100 100 100 100 100 100 100 100 100 100 100 64 53 97 100
8 5 5 1 0 0 0 0 0 4 0 3 78 100 100 90 100 100 100 100 100 100 100 100 97 100 78 33 33 100 100 100 100 100 100 100 100 100 100 100 100 100 100 100 100 100 99 35 75
42 5 5 0 0 0 0 0 4 12 0 3 100 100 79 100 100 100 100 100 100 100 100 100 100 79 42 84 86 97 100 100 100 100 100 100 100 100 100 100 100 100 100 100 100 100 100 100 99
5 4 4 0 0 0 0 0 15 11 0 0 100 100 100 100 100 100 100 100 88 100 90 100 82 24 100 100 61 10 90 96 100 100 100 100 98 89 100 100 100 100 100 100 100 100 100 100 100
9 4 0 0 0 0 0 0 0 0 0 0 100 100 74 100 49 98 35 63 100 97 100 100 100 93 67 12 5 0 27 2 56 100 100 100 100 100 100 79 100 100 100 100 100 100 100 100 100
9 4 0 0 0 0 0 0 0 0 0 5 100 86 31 12 97 72 34 5 4 4 4 1 1 3 4 5 3 0 0 0 4 99 100 100 100 100 100 99 90 100 100 100 100 100 100 100 100
5 0 0 0 0 0 0 0 0 0 0 3 100 100 96 89 17 81 6 33 100 24 0 4 1 5 43 5 0 0 0 0 0 3 100 100 100 100 100 100 100 100 100 100 100 100 100 99 100
0 0 0 0 0 0 0 0 0 5 5 21 8 100 100 100 100 100 100 100 100 100 85 66 29 5 1 0 0 0 0 0 5 4 86 100 100 100 100 65 100 100 100 100 100 100 100 100 100
4 0 0 0 0 0 0 0 0 2 0 0 4 14 10 25 79 100 100 78 27 1 0 5 5 5 3 0 5 5 5 9 4 0 1 15 60 100 82 98 76 54 82 100 100 100 100 100 100
2 0 0 0 0 0 0 0 0 0 0 0 1 4 3 5 5 5 5 2 3 4 5 5 5 5 4 5 5 5 5 5 5 3 0 0 0 0 35 53 56 79 58 89 100 100 100 100 100
5 5 0 0 0 0 0 0 0 0 0 5 5 19 16 5 5 5 5 5 5 5 5 5 5 5 5 5 5 5 5 5 30 5 1 0 0 0 12 28 60 100 53 54 100 100 100 100 100
5 5 3 2 1 0 0 0 0 0 0 0 4 5 5 5 15 79 5 5 12 99 19 10 28 5 5 5 5 52 82 88 99 36 36 14 67 46 42 47 90 96 99 75 100 100 100 100 100
5 1 3 5 5 0 0 0 0 0 0 0 5 5 5 79 97 62 40 99 100 93 71 4 5 5 5 5 8 22 75 34 95 100 100 100 100 100 100 100 100 100 100 100 100 100 100 100 100
5 5 4 5 2 0 0 0 0 0 2 5 5 35 62 98 99 97 100 97 67 5 2 5 5 21 61 5 5 4 17 88 81 100 100 100 100 100 100 100 100 100 100 100 100 100 100 100 100
5 5 6 5 0 0 0 0 0 1 5 5 27 95 85 100 96 90 86 18 5 0 0 4 47 73 5 29 33 100 100 79 99 100 100 100 100 100 100 100 100 100 100 100 100 100 100 100 100